This demonstration page uses our WeatherBlox Daily Observations layout. Learn more.

Left ArrowRight Arrow

Hourly Observations for July 6, 2017

Temp ( °F °C ) Dew Point ( °F °C ) Humidity (%) Winds ( mph kmh ) Pressure ( in mb ) Visibility ( mi km ) Precip ( " mm )
12:15 am 00:15 Clear 74 23.6 61 16.2 63 63 S 9 15 29.97 1015 10 16 0.00 0.00
12:35 am 00:35 Clear 75 24 60 15.6 59 59 S 9 15 29.94 1014 10 16 0.00 0.00
12:55 am 00:55 Clear 75 24.1 60 15.4 58 58 SSE 9 15 29.94 1014 10 16 0.00 0.00
1:15 am 01:15 Clear 75 23.9 59 15.1 58 58 S 8 13 29.97 1015 10 16 0.00 0.00
1:35 am 01:35 Clear 75 24 60 15.6 59 59 SSW 8 13 29.94 1014 10 16 0.00 0.00
1:55 am 01:55 Clear 74 23.6 60 15.7 61 61 S 9 15 30.00 1016 10 16 0.00 0.00
2:15 am 02:15 Clear 74 23.2 60 15.7 63 63 S 9 15 30.00 1016 10 16 0.00 0.00
2:35 am 02:35 Clear 73 23 60 15.8 64 64 S 8 13 30.00 1016 10 16 0.00 0.00
2:55 am 02:55 Clear 74 23.2 61 16 64 64 SSE 5 7 30.00 1016 10 16 0.00 0.00
3:15 am 03:15 Clear 73 23 61 16 65 65 E 9 15 30.03 1017 10 16 0.00 0.00
3:35 am 03:35 Partly Cloudy 71 21.6 62 16.5 73 73 E 9 15 30.06 1018 10 16 0.00 0.00
3:55 am 03:55 Partly Cloudy 71 21.6 62 16.5 73 73 E 12 19 30.06 1018 10 16 0.00 0.00
4:15 am 04:15 Clear 70 21.2 62 16.6 75 75 E 10 17 30.09 1019 10 16 0.00 0.00
4:35 am 04:35 Clear 70 21 62 16.5 76 76 ESE 6 9 30.06 1018 10 16 0.00 0.00
4:55 am 04:55 Clear 69 20.5 62 16.6 78 78 E 7 11 30.06 1018 10 16 0.00 0.00
5:15 am 05:15 Clear 68 20.1 62 16.6 80 80 ESE 7 11 30.06 1018 10 16 0.00 0.00
5:35 am 05:35 Clear 68 20 62 16.5 80 80 SSE 7 11 30.03 1017 10 16 0.00 0.00
5:55 am 05:55 Clear 68 20.1 62 16.6 80 80 SE 5 7 30.03 1017 10 16 0.00 0.00
6:15 am 06:15 Sunny 66 19 62 16.5 86 86 Calm 30.06 1018 10 16 0.00 0.00
6:35 am 06:35 Sunny 66 18.7 62 16.4 87 87 Calm 30.03 1017 10 16 0.00 0.00
6:55 am 06:55 Sunny 65 18.5 62 16.6 89 89 Calm 30.03 1017 10 16 0.00 0.00
7:15 am 07:15 Sunny 65 18.6 63 17 90 90 Calm 30.03 1017 10 16 0.00 0.00
7:35 am 07:35 Sunny 68 19.9 63 17.2 85 85 Calm 30.03 1017 10 16 0.00 0.00
7:55 am 07:55 Sunny 71 21.4 62 16.9 76 76 SSE 3 6 30.00 1016 10 16 0.00 0.00
8:15 am 08:15 Sunny 72 22.2 63 17.2 73 73 S 3 6 30.00 1016 10 16 0.00 0.00
8:35 am 08:35 Sunny 74 23.1 64 17.6 71 71 Calm 30.00 1016 10 16 0.00 0.00
8:55 am 08:55 Sunny 75 24.1 65 18.3 70 70 WSW 3 6 30.00 1016 10 16 0.00 0.00
9:15 am 09:15 Sunny 77 25.1 66 18.7 68 68 W 5 7 29.97 1015 10 16 0.00 0.00
9:35 am 09:35 Sunny 80 26.6 65 18.6 62 62 WSW 6 9 29.97 1015 10 16 0.00 0.00
9:55 am 09:55 Sunny 82 27.7 66 19.1 60 60 W 10 17 29.97 1015 10 16 0.00 0.00
10:15 am 10:15 Sunny 83 28.5 66 19 56 56 WSW 12 19 29.94 1014 10 16 0.00 0.00
10:35 am 10:35 Sunny 85 29.5 67 19.5 55 55 WSW 9 15 29.91 1013 10 16 0.00 0.00
10:55 am 10:55 Sunny 87 30.6 67 19.6 52 52 WSW 8 13 29.91 1013 10 16 0.00 0.00
11:15 am 11:15 Sunny 89 31.6 67 19.2 48 48 W 9 15 29.88 1012 10 16 0.00 0.00
11:35 am 11:35 Sunny 91 32.5 65 18.5 43 43 WSW 8 13 29.88 1012 10 16 0.00 0.00
11:55 am 11:55 Sunny 92 33.4 64 18 40 40 WSW 9 15 29.88 1012 10 16 0.00 0.00
12:15 pm 12:15 Sunny 93 34.1 60 15.3 32 32 W 9 15 29.88 1012 10 16 0.00 0.00
12:35 pm 12:35 Sunny 94 34.7 59 15.2 31 31 W 12 19 29.88 1012 10 16 0.00 0.00
12:55 pm 12:55 Sunny 96 35.5 56 13.4 26 26 W 10 17 29.85 1011 10 16 0.00 0.00
1:15 pm 13:15 Sunny 96 35.8 56 13.2 26 26 W 13 20 29.85 1011 10 16 0.00 0.00
1:35 pm 13:35 Sunny 97 36.2 56 13.6 26 26 W 12 19 29.85 1011 10 16 0.00 0.00
1:55 pm 13:55 Sunny 98 36.6 59 15 27 27 W 13 20 29.85 1011 10 16 0.00 0.00
2:15 pm 14:15 Sunny 98 36.7 58 14.2 26 26 NW 10 17 29.83 1010 10 16 0.00 0.00
2:35 pm 14:35 Sunny 99 37 58 14.6 26 26 NNW 9 15 29.83 1010 10 16 0.00 0.00
2:55 pm 14:55 Sunny 98 36.7 62 16.7 31 31 N 6 9 29.83 1010 10 16 0.00 0.00
3:15 pm 15:15 Sunny 98 36.5 61 16.3 30 30 NNW 7 11 29.83 1010 10 16 0.00 0.00
3:35 pm 15:35 Sunny 98 36.5 63 17.3 32 32 NNW 7 11 29.83 1010 10 16 0.00 0.00
3:55 pm 15:55 Sunny 99 37 60 15.8 28 28 NW 9 15 29.83 1010 10 16 0.00 0.00
4:15 pm 16:15 Sunny 100 37.6 58 14.4 25 25 NW 9 15 29.83 1010 10 16 0.00 0.00
4:35 pm 16:35 Sunny 100 38 57 13.9 24 24 NW 9 15 29.83 1010 10 16 0.00 0.00
4:55 pm 16:55 Sunny 100 37.9 58 14.4 25 25 NNW 8 13 29.83 1010 10 16 0.00 0.00
5:15 pm 17:15 Sunny 100 38 55 12.5 22 22 NNW 7 11 29.83 1010 10 16 0.00 0.00
5:35 pm 17:35 Sunny 100 37.6 60 15.3 27 27 N 3 6 29.83 1010 10 16 0.00 0.00
5:55 pm 17:55 Sunny 99 37.3 60 15.5 27 27 NNW 5 7 29.83 1010 10 16 0.00 0.00
6:15 pm 18:15 Sunny 97 36.1 61 16 30 30 ENE 9 15 29.83 1010 10 16 0.00 0.00
6:35 pm 18:35 Sunny 95 34.8 63 17.2 35 35 ENE 8 13 29.83 1010 10 16 0.00 0.00
6:55 pm 18:55 Sunny 92 33.1 63 17.3 39 39 E 8 13 29.85 1011 10 16 0.00 0.00
7:15 pm 19:15 Sunny 88 31.2 64 18 45 45 E 8 13 29.85 1011 10 16 0.00 0.00
7:35 pm 19:35 Sunny 86 30 66 18.9 51 51 ENE 7 11 29.88 1012 10 16 0.00 0.00
7:55 pm 19:55 Sunny 86 30 63 17.2 46 46 E 8 13 29.88 1012 10 16 0.00 0.00
8:15 pm 20:15 Sunny 88 30.9 59 14.8 38 38 E 9 15 29.85 1011 10 16 0.00 0.00
8:35 pm 20:35 Sunny 87 30.6 58 14.7 38 38 E 8 13 29.88 1012 10 16 0.00 0.00
8:55 pm 20:55 Sunny 84 28.8 61 15.9 46 46 NE 7 11 29.88 1012 10 16 0.00 0.00
9:15 pm 21:15 Clear 82 27.8 62 16.5 50 50 SSW 6 9 29.88 1012 10 16 0.00 0.00
9:35 pm 21:35 Clear 87 30.5 56 13.3 35 35 E 5 7 29.91 1013 10 16 0.00 0.00
9:55 pm 21:55 Clear 85 29.6 57 14 38 38 ENE 5 7 29.91 1013 10 16 0.00 0.00
10:15 pm 22:15 Clear 80 26.5 61 16 53 53 W 6 9 29.97 1015 10 16 0.00 0.00
10:35 pm 22:35 Clear 79 25.9 61 16 54 54 NNE 3 6 29.94 1014 10 16 0.00 0.00
10:55 pm 22:55 Clear 78 25.4 62 16.5 58 58 NNE 6 9 29.94 1014 10 16 0.00 0.00
11:15 pm 23:15 Clear 74 23.4 63 17.4 69 69 NNW 3 6 29.97 1015 10 16 0.00 0.00
11:35 pm 23:35 Clear 75 24 62 16.6 63 63 WSW 9 15 30.00 1016 10 16 0.00 0.00
11:55 pm 23:55 Clear 77 25.2 60 15.3 54 54 WSW 7 11 29.97 1015 10 16 0.00 0.00

Powered by AerisWeather